User: anonymous   Login
Location: Caltech
(34.1382°N, 118.1253°W)
Time: 01:06:20
(UTC-07:00)
Language:

DELTA 2 R/B (1) - Orbit

View from above orbital plane
View from above orbital plane
View from above satellite
View from above satellite

Ground track
Ground track

The orbit data is extracted from the following two-line orbital elements,

1 27665U 03005C   17081.79275536 +.00000025 +00000-0 +43560-4 0  9994
2 27665 039.5753 190.1665 0007997 060.2906 062.4979 14.28437543738481
Epoch (UTC): 22 March 2017 19:01:34
Eccentricity: 0.0007997
inclination: 39.5753°
perigee height: 791 km
apogee height: 802 km
right ascension of ascending node: 190.1665°
argument of perigee: 60.2906°
revolutions per day: 14.28437543
mean anomaly at epoch: 62.4979°
orbit number at epoch: 73848

The dashed part of the orbit path shows where the satellite is in the earth's shadow,  

DLR